FLOCK 3M-2 (42998 NORAD) Tracking and Keplerian Element Data

This shows tracking and keplerian element data for the satellite.

Feedback or suggestion? Click here.




ElementValue
Catalog42998
NameFLOCK 3M-2
Epoch Orbit13428
Epoch Day94.09263915
Epoch Year2020
RAAN203.2235
Inclination97.3982
Eccentricity0.0014418
Argument of Perigee18.3784
Mean Anonmoly341.797
Mean Motion15.21069976
Decay Rate8.77E-06
L11 42998U 17068M 20094.09263915 .00000877 00000-0 42485-4 0 9993
L22 42998 97.3982 203.2235 0014418 18.3784 341.7970 15.21069976134283

Live tracking and technical data element details for FLOCK 3M-2 (NORAD 42998). FLOCK 3M-2 can be tracked NOW for your location showing map with azimuth and elevation plus other details from your city location.

Track the satellite on the map from your city or location and see movement details for azimuth, elevation, latitude, longitude, range, height, and movement on the map or in text.







IsCatalogInMostPopularTable: catalog: 42998, numindb: 417
Update: records affected: 1



GetName: 42998 FLOCK 3M-2

Hit Count: updated at: Thu, 09 Apr 2020 16:18:18 GMT